"Pseudo-MPEC" for C1FZKW5

Created 2026 Sep 5 10:35:04 UT using Find_Orb

Click here for an explanation of pseudo-MPECs

 
 Astrometry: 
     C1FZKW5*1C2026 09 05.16622821 05 59.111+10 16 35.33   ~9555 21.43GVNEOCPV00
     C1FZKW5 1C2026 09 05.17739621 06 01.148+10 16 16.39   ~9555 21.59GVNEOCPV00
     C1FZKW5 1C2026 09 05.18298621 06 02.164+10 16 06.78   ~9555 22.16GVNEOCPV00
     C1FZKW5 1C2026 09 05.21374921 06 07.715+10 15 14.36   ~955Z 22.70GVNEOCPV06
     C1FZKW5 1C2026 09 05.21806221 06 08.485+10 15 07.02   ~955Z 22.18GVNEOCPV06
     C1FZKW5 1C2026 09 05.22074421 06 08.978+10 15 02.30   ~955Z 22.01GVNEOCPV06

Station data:
(V00) Kitt Peak-Bok  (N31.963125 W111.600190)  US/Arizona. Measurers T.
   Beuden, V. F. Carvajal, D. Fay, J. B. Fazekas, D. C. Fuls, A. R. Gibbs, A.
   D. Grauer, H. Gröller, J. K. Hogan, R. A. Kowalski, S. M. Larson, G. J.
   Leonard, D. Rankin, R. L. Seaman, F. C. Shelly, K. W. Wierzchoś. 2.25-m
   reflector + 4x4K mosaic CCD.
(V06) Catalina Sky Survey-Kuiper  (N32.416871 W110.732550)  US/Arizona.
   Measurers T. Beuden, V. F. Carvajal, D. Fay, J. B. Fazekas, D. C. Fuls, A.
   R. Gibbs, A. D. Grauer, H. Gröller, J. K. Hogan, R. A. Kowalski, S. M.
   Larson, G. J. Leonard, D. Rankin, R. L. Seaman, F. C. Shelly, K. W.
   Wierzchoś. 1.55-m reflector + CCD.

Orbital elements:  C1FZKW5
   Perihelion 2026 Jul 21.153367 +/- 35.5 TT =  3:40:50.9 (JD 2461242.653367)
Epoch 2026 Sep  5.0 TT = JDT 2461288.5   Earth MOID: 0.1160   Ma: 0.0605
M  20.066667746 +/- 20              (J2000 ecliptic)             AutoNEOCP
n   0.437691197 +/- 0.309           Peri.   80.138870 +/- 100
a   1.718004015 +/- 0.809           Node   214.960091 +/- 60
e   0.36544337 +/- 0.245            Incl.    5.004241 +/- 5.2
P   2.252/822.482d         H 24.26  G  0.15   U 12.0  SR
q 1.090170835 +/- 0.26    Q 2.345837195 +/- 44.2
From 6 observations 2026 Sept. 5 (78.5 min); mean residual 0".06
Residuals in arcseconds: 
260905 V00  .01+  .05+    260905 V00  .02-  .11-    260905 V06  .09-  .07+    
260905 V00  .00   .02+    260905 V06  .08+  .06+    260905 V06  .02+  .08-    

Ephemerides (geocentric):
Date (UTC) HH   RA             Dec           delta  r     elong  mag " sig PA
---- --------  ------------   ------------  ------ ------ -----  --- --------
2026 09 05 11  21 06 55.539   +10 08 33.78  .19729 1.1803 148.0 22.3 67.3 105
2026 09 05 12  21 07 03.709   +10 07 22.84  .19744 1.1804 148.1 22.3 78.9 102
2026 09 05 13  21 07 11.870   +10 06 11.94  .19759 1.1806 148.1 22.3 90.9 100
2026 09 05 14  21 07 20.024   +10 05 01.09  .19774 1.1807 148.1 22.3  103  98
2026 09 05 15  21 07 28.171   +10 03 50.27  .19790 1.1809 148.1 22.3  116  96
2026 09 05 16  21 07 36.309   +10 02 39.49  .19805 1.1810 148.1 22.3  129  94
2026 09 05 17  21 07 44.440   +10 01 28.76  .19821 1.1812 148.1 22.3  142  93
2026 09 05 18  21 07 52.564   +10 00 18.07  .19836 1.1813 148.2 22.3  156  91
2026 09 05 19  21 08 00.679   +09 59 07.42  .19851 1.1815 148.2 22.3  171  90
2026 09 05 20  21 08 08.787   +09 57 56.81  .19867 1.1816 148.2 22.3  186  89
2026 09 05 21  21 08 16.888   +09 56 46.25  .19882 1.1818 148.2 22.3  202  87
2026 09 05 22  21 08 24.981   +09 55 35.73  .19898 1.1819 148.2 22.3  218  86
2026 09 05 23  21 08 33.066   +09 54 25.25  .19913 1.1821 148.2 22.3  235  85
2026 09 06 00  21 08 41.144   +09 53 14.81  .19929 1.1822 148.2 22.3  253  84
2026 09 06 01  21 08 49.214   +09 52 04.42  .19944 1.1824 148.3 22.3  271  83
2026 09 06 02  21 08 57.277   +09 50 54.07  .19960 1.1825 148.3 22.3  291  82
2026 09 06 03  21 09 05.332   +09 49 43.76  .19975 1.1827 148.3 22.3  311  81
2026 09 06 04  21 09 13.380   +09 48 33.50  .19991 1.1828 148.3 22.3  332  80
2026 09 06 05  21 09 21.420   +09 47 23.28  .20007 1.1830 148.3 22.3  353  79
2026 09 06 06  21 09 29.452   +09 46 13.10  .20022 1.1831 148.3 22.3  376  78
2026 09 06 07  21 09 37.478   +09 45 02.97  .20038 1.1833 148.3 22.3  399  78
2026 09 06 08  21 09 45.495   +09 43 52.88  .20054 1.1834 148.4 22.3  424  77
2026 09 06 09  21 09 53.505   +09 42 42.84  .20069 1.1836 148.4 22.3  449  76
2026 09 06 10  21 10 01.508   +09 41 32.84  .20085 1.1837 148.4 22.3  475  76
2026 09 06 11  21 10 09.503   +09 40 22.88  .20101 1.1839 148.4 22.3  503  75
2026 09 06 12  21 10 17.491   +09 39 12.97  .20116 1.1841 148.4 22.3  531  74
2026 09 06 13  21 10 25.472   +09 38 03.10  .20132 1.1842 148.4 22.3  560  74
2026 09 06 14  21 10 33.445   +09 36 53.28  .20148 1.1844 148.4 22.3  590  73
2026 09 06 15  21 10 41.410   +09 35 43.51  .20164 1.1845 148.4 22.3  622  73
2026 09 06 16  21 10 49.368   +09 34 33.77  .20180 1.1847 148.5 22.3  654  73
2026 09 06 17  21 10 57.319   +09 33 24.09  .20195 1.1848 148.5 22.3  687  72
2026 09 06 18  21 11 05.263   +09 32 14.45  .20211 1.1850 148.5 22.3  721  72
2026 09 06 19  21 11 13.199   +09 31 04.85  .20227 1.1851 148.5 22.3  757  71
2026 09 06 20  21 11 21.128   +09 29 55.30  .20243 1.1853 148.5 22.4  794  71
2026 09 06 21  21 11 29.049   +09 28 45.80  .20259 1.1854 148.5 22.4  831  71
2026 09 06 22  21 11 36.963   +09 27 36.34  .20275 1.1856 148.5 22.4  870  70
2026 09 06 23  21 11 44.870   +09 26 26.93  .20291 1.1857 148.6 22.4  910  70
2026 09 07 00  21 11 52.770   +09 25 17.57  .20307 1.1859 148.6 22.4  951  70
2026 09 07 01  21 12 00.662   +09 24 08.25  .20323 1.1860 148.6 22.4  994  70
2026 09 07 02  21 12 08.547   +09 22 58.97  .20339 1.1862 148.6 22.4 1037  69
2026 09 07 03  21 12 16.425   +09 21 49.75  .20355 1.1863 148.6 22.4 1082  69
2026 09 07 04  21 12 24.295   +09 20 40.57  .20371 1.1865 148.6 22.4 1129  69
2026 09 07 05  21 12 32.158   +09 19 31.44  .20387 1.1867 148.6 22.4 1176  69
2026 09 07 06  21 12 40.014   +09 18 22.35  .20403 1.1868 148.6 22.4 1225  69
2026 09 07 07  21 12 47.863   +09 17 13.31  .20419 1.1870 148.7 22.4 1276  68
2026 09 07 08  21 12 55.704   +09 16 04.32  .20435 1.1871 148.7 22.4 1327  68
2026 09 07 09  21 13 03.539   +09 14 55.38  .20452 1.1873 148.7 22.4 1381  68
2026 09 07 10  21 13 11.366   +09 13 46.48  .20468 1.1874 148.7 22.4 1435  68